SCP
-0 -0 -0 -0 -0 0 -0 -0 -0 -0 -0 -0 -0 -0 -0 -0 -0 -0 -0 -0 -0 -0 -0 -0 -0 -0 -0 -0 -0 -0 -0 -0 0 0 0 0 0 0 0 0 0 0 0
-0 0 -0 -0 0 -0 -0 -0 -0 -0 -0 -0 -0 -0 -0 -0 -0 -0 -0 -0 -0 -0 -0 -0 -0 -0 -0 -0 -0 -0 -0 0 0 -0 -0 -0 0 0 0 0 0 0 0
0 0 0 -0 -0 -0 0 -0 -0 -0 -0 -0 -0 -0 -0 -0 -0 -0 -0 -0 -0 -0 -0 -0 -0 -0 -0 -0 0 0 0 0 0 -0 -0 0 0 0 0 0 0 0 0
-0 0 0 -0 -0 -0 0 0 0 0 -0 -0 -0 -0 -0 -0 -0 -0 -0 -0 -0 -0 -0 -0 0 0 0 0 0 0 0 0 -0 -0 0 0 0 0 0 0 0 0 0
0 0 0 -0 0 0 0 0 0 0 0 0 -0 -0 -0 -0 -0 -0 -0 -0 -0 -0 0 0 0 0 0 0 0 0 0 0 -0 -0 0 0 0 0 0 0 0 0 0
0 0 0 0 0 0 0 0 0 0 0 0 0 0 -0 -0 -0 0 -0 -0 0 0 0 0 0 0 0 0 0 0 0 0 -0 -0 0 0 0 1 1 0 0 0 0
0 0 0 0 1 0 0 0 0 0 0 0 0 0 0 -0 0 0 0 0 0 0 0 0 0 0 0 0 0 0 0 -0 0 0 -0 0 0 1 1 1 0 0 0
1 1 1 1 1 1 0 0 0 0 0 0 0 0 0 0 0 0 0 0 0 0 0 0 0 0 0 0 0 0 0 0 0 0 0 0 0 1 0 0 0 0 1
2 1 1 1 1 1 1 0 0 0 0 0 0 0 0 0 0 0 0 0 0 0 0 0 0 0 0 0 0 0 0 0 0 0 0 0 0 1 1 2 2 1 1
1 1 1 1 2 2 1 1 0 0 0 0 0 0 0 0 0 0 0 0 0 0 0 0 0 0 0 0 -0 0 0 0 0 0 0 0 1 1 1 1 1 1 1
2 1 1 1 1 1 1 1 1 1 1 0 0 0 0 0 0 0 0 0 0 0 0 0 0 0 0 0 -0 0 0 0 0 0 1 1 1 1 0 0 0 0 0
3 1 1 0 1 1 1 1 1 1 0 0 0 0 0 0 0 0 0 0 0 0 0 0 0 0 0 0 0 0 0 0 0 0 1 1 1 0 0 0 0 0 0
2 2 2 1 0 0 1 1 1 1 0 0 0 0 0 0 0 0 0 0 0 0 0 0 0 0 0 0 0 0 0 0 0 0 0 0 0 0 0 0 0 0 0
0 2 1 2 1 1 1 1 1 1 0 0 0 0 0 0 0 0 0 0 0 0 0 0 0 0 0 0 0 0 0 0 0 0 0 0 0 0 0 0 0 0 0
0 1 2 2 2 2 1 0 0 0 0 0 0 0 0 0 0 0 0 0 0 0 0 0 0 0 0 0 0 0 0 0 0 0 0 0 0 0 0 0 0 0 0
0 0 1 3 1 3 1 0 0 0 0 0 0 0 0 0 0 0 0 0 0 0 0 0 0 0 0 0 0 0 0 0 0 0 0 0 0 0 0 0 0 0 0
0 0 3 2 2 2 3 2 1 1 0 0 0 0 0 0 0 0 0 0 0 0 0 0 0 0 0 0 0 0 0 0 0 0 0 0 0 0 0 0 0 0 0
0 0 0 4 3 3 2 2 2 2 1 0 0 0 0 0 1 0 0 0 0 0 0 0 0 0 0 0 0 0 0 0 0 0 0 0 0 0 0 0 0 0 0
0 0 0 1 4 2 2 2 1 1 2 1 1 1 0 0 1 0 0 0 0 0 0 0 0 0 0 0 0 0 1 0 0 0 0 0 0 0 0 0 0 0 0
0 0 0 0 0 2 2 2 2 1 0 2 3 1 1 1 1 0 0 0 0 0 0 0 0 0 0 0 0 0 0 0 0 0 0 0 0 0 0 0 0 0 0
0 0 0 0 0 0 0 3 2 1 1 0 0 0 1 1 0 0 0 0 0 0 0 0 1 1 0 0 0 0 0 0 0 0 0 0 0 0 0 0 0 0 0
0 0 0 0 0 1 2 3 1 2 0 0 0 0 1 1 1 1 0 0 0 0 1 1 1 1 0 0 0 0 0 0 0 0 0 0 0 0 0 0 0 0 0
0 0 0 0 0 0 0 1 2 1 1 1 0 2 1 2 1 1 0 0 1 1 1 1 1 0 0 0 0 0 0 0 0 0 0 0 0 0 0 0 0 0 0
0 0 0 0 0 0 0 0 0 2 1 1 0 0 1 1 1 1 0 0 1 1 1 1 1 0 0 0 0 0 0 0 0 0 0 0 0 0 0 0 0 0 0
0 0 0 0 0 0 0 0 0 0 1 1 0 0 0 1 0 0 0 0 1 1 0 0 0 0 0 0 0 0 0 0 0 0 0 0 0 0 0 0 0 0 0
0 0 0 0 0 0 1 1 0 1 1 1 0 1 1 1 0 0 0 1 0 0 0 0 0 0 0 0 0 0 0 0 0 0 0 0 0 0 0 0 0 0 0
Wind_Speed_500mb
15 18 37 35 30 29 30 27 23 18 16 15 14 18 22 26 28 29 29 27 26 27 28 29 28 24 19 12 9 9 8 6 4 5 7 9 13 18 20 17 19 23 18
9 17 36 34 28 28 28 25 23 20 17 14 14 16 19 24 27 29 28 28 27 28 27 26 23 19 15 11 11 9 7 5 5 7 10 11 13 12 15 15 19 23 19
6 11 35 37 28 28 28 24 22 22 19 15 15 15 17 21 24 24 23 24 24 24 22 20 16 14 11 5 5 4 4 4 5 8 12 8 14 12 11 10 19 24 24
4 6 34 36 31 29 26 25 22 21 19 16 15 14 16 21 23 23 22 21 21 19 17 13 11 11 9 2 3 5 5 5 4 8 14 9 18 16 13 14 26 32 28
6 4 32 38 32 30 28 25 24 20 20 17 16 14 15 19 21 21 20 19 18 16 13 10 10 8 4 0 2 5 5 5 1 5 8 6 17 15 14 24 32 36 36
4 7 29 39 34 31 29 25 26 24 21 18 17 15 15 18 18 19 19 18 16 14 11 10 8 5 2 2 5 7 8 8 6 3 8 9 15 17 30 26 30 39 42
11 5 6 40 35 34 31 28 25 23 21 20 20 17 17 19 19 19 17 18 18 13 10 7 5 4 1 3 6 9 10 11 10 8 9 5 9 16 21 28 36 41 42
17 22 9 29 38 36 34 32 28 24 22 22 24 22 20 20 21 21 19 19 19 15 10 6 3 1 2 4 7 11 12 12 9 10 2 5 10 24 25 25 32 32 32
13 20 16 18 39 40 38 36 32 27 24 22 23 23 23 23 22 21 21 21 21 16 11 6 3 3 2 6 12 14 12 9 10 15 4 8 17 19 18 24 35 33 37
7 11 13 16 37 45 44 40 35 31 28 26 27 25 24 25 25 23 22 23 21 16 11 8 5 5 5 8 17 21 16 16 4 7 13 13 18 16 22 30 31 36 37
13 15 23 18 21 47 47 45 41 37 33 31 31 29 29 28 28 28 25 24 22 18 12 9 7 6 4 4 10 16 16 14 10 14 19 16 10 18 26 33 37 41 38
21 17 20 24 23 47 51 48 45 43 40 37 35 32 31 29 28 27 27 25 24 19 14 10 6 3 3 10 5 7 9 12 15 17 7 6 19 28 34 40 47 38 33
24 23 22 30 27 37 51 47 49 47 43 40 38 35 33 32 29 31 30 28 25 21 16 12 6 10 9 5 7 7 12 17 4 9 11 14 26 35 42 43 38 29 30
20 20 19 30 32 29 45 39 38 49 46 45 42 39 40 39 32 30 27 20 23 22 15 14 11 5 4 10 9 3 4 2 8 9 20 27 34 41 45 35 30 30 29
33 13 14 20 37 49 42 47 52 39 50 48 46 42 45 44 36 27 25 19 9 16 17 9 6 3 9 4 8 13 17 21 22 27 33 40 44 38 35 32 33 33 38
40 39 28 30 26 44 57 43 56 54 41 45 49 45 50 49 41 39 31 31 21 11 12 10 3 13 17 15 16 14 23 26 23 30 32 36 45 32 26 32 35 38 40
29 42 54 53 44 38 62 56 57 52 46 40 39 42 48 55 50 47 41 40 33 26 17 19 28 27 25 26 18 19 22 27 17 24 26 34 38 28 27 29 41 37 45
55 42 46 53 44 44 42 65 63 67 57 59 48 44 43 60 60 51 43 52 54 42 48 42 36 30 19 15 17 17 21 24 22 27 24 25 22 24 23 32 39 40 38
45 52 39 51 56 40 44 40 67 73 65 59 61 59 55 52 58 59 52 51 46 50 44 36 36 26 17 24 26 23 20 19 22 25 20 20 11 16 19 25 34 38 32
59 52 52 38 55 44 47 48 45 74 79 61 73 76 64 65 59 65 60 53 49 50 46 31 26 26 32 34 30 26 22 23 19 19 15 15 8 12 24 36 30 30 35
54 53 45 47 49 45 41 52 56 53 78 89 36 54 78 76 63 72 60 61 57 55 46 38 32 38 34 33 32 29 20 19 24 15 10 11 13 20 28 25 27 35 29
50 53 47 45 51 48 47 61 60 60 60 73 102 112 90 82 71 65 62 67 55 55 50 39 48 44 37 29 17 13 5 5 9 6 3 7 16 14 16 22 23 19 20
53 49 40 40 50 44 42 43 54 60 53 61 85 99 81 82 66 58 62 65 56 49 54 42 43 41 35 24 11 8 8 7 4 11 10 6 1 10 9 14 10 11 13
54 51 47 44 40 40 42 47 38 60 64 56 71 81 64 72 63 64 57 60 55 50 46 45 43 35 38 23 13 12 10 6 5 7 7 11 14 10 14 2 5 15 23
48 45 44 45 45 46 47 34 32 38 55 70 62 53 57 60 68 53 51 58 47 56 52 51 43 37 32 25 17 21 14 8 12 6 11 14 10 20 18 12 20 19 32
38 45 44 38 38 49 43 37 37 38 46 53 53 53 55 60 71 52 57 68 63 64 56 49 39 35 31 27 24 18 10 9 11 9 7 10 4 17 15 21 29 37 44
Wind_Direction_500mb
67 110 158 151 144 138 134 129 129 135 139 127 116 123 132 139 140 142 142 143 140 138 136 136 139 136 128 121 138 157 167 169 148 130 119 99 71 49 23 9 354 360 3
43 113 161 155 148 144 136 129 133 140 145 138 129 124 136 140 142 145 147 147 143 143 143 145 147 149 144 132 141 162 184 165 129 124 112 100 52 31 28 16 359 355 354
76 97 170 163 156 150 140 132 135 144 153 152 144 135 145 147 145 146 148 147 148 148 146 148 154 159 160 144 117 107 96 91 100 111 106 86 19 327 344 7 353 342 334
318 119 179 171 163 156 147 142 139 148 155 161 158 152 154 154 153 153 152 151 150 147 146 146 144 152 168 160 33 50 55 68 102 139 137 32 15 331 276 331 340 340 331
11 122 185 179 173 163 155 153 146 152 159 165 170 166 164 161 159 157 157 155 150 146 146 153 155 163 183 173 14 18 21 17 52 179 170 80 0 344 306 320 329 331 325
178 79 187 186 183 171 164 167 157 159 164 174 176 176 174 169 168 167 166 163 159 158 158 163 171 195 225 315 338 352 356 347 335 275 196 161 346 301 308 316 319 319 317
228 165 138 195 189 181 175 176 171 166 172 177 181 184 182 180 175 177 177 172 172 176 178 171 172 193 249 340 358 353 349 342 344 322 276 246 297 314 297 302 310 312 310
234 169 164 199 195 191 183 183 182 177 178 185 188 188 186 188 185 184 189 185 184 188 188 180 179 206 334 359 5 359 353 2 9 345 290 208 284 283 282 294 311 316 318
215 188 187 189 203 199 193 190 189 187 186 189 197 196 192 192 195 193 195 195 192 198 206 218 233 259 294 1 18 18 22 57 62 47 158 290 325 259 267 295 306 312 313
210 214 214 228 204 205 201 196 195 195 195 195 199 200 199 199 200 202 201 202 201 208 220 236 249 282 330 24 70 61 62 70 41 358 302 309 274 263 287 298 308 311 312
224 221 238 218 225 210 208 203 200 200 202 201 202 203 203 203 205 205 204 205 206 213 225 245 262 286 353 51 89 76 61 39 358 315 295 264 277 293 310 317 317 314 312
204 227 245 246 239 218 210 209 208 205 204 205 205 206 206 205 208 210 210 211 209 215 221 225 247 303 106 116 65 104 54 1 332 327 256 260 314 320 324 322 317 315 318
232 220 244 244 235 217 214 212 215 214 210 209 208 206 206 205 199 208 212 213 216 220 217 207 168 121 137 173 135 95 4 327 306 194 306 335 323 322 320 314 318 326 324
204 244 239 226 216 192 216 222 224 224 219 216 213 206 205 207 197 215 209 216 229 223 208 202 187 155 240 331 281 179 336 20 104 326 320 318 321 317 310 321 330 333 332
271 191 229 219 219 202 208 227 232 231 228 226 220 210 204 206 201 216 212 205 214 204 181 152 197 176 200 326 140 187 239 270 289 299 304 311 312 305 316 326 331 332 331
267 251 245 243 254 227 224 229 225 235 232 229 227 217 204 204 204 216 216 216 220 195 193 203 158 233 248 226 252 242 239 270 280 293 298 296 308 301 314 324 328 330 333
268 246 244 252 258 247 228 228 223 223 226 228 229 214 211 203 205 214 215 215 217 216 218 199 210 215 238 245 234 261 278 287 270 291 290 291 299 296 313 331 329 326 331
261 258 246 240 244 256 240 228 216 210 221 224 230 225 217 214 204 213 217 206 208 205 213 215 216 223 216 216 246 261 291 286 270 279 294 302 303 302 309 316 321 318 321
251 255 248 239 238 250 247 242 233 220 218 220 219 226 224 220 212 211 213 209 215 210 217 220 223 196 223 224 233 253 257 263 283 291 289 301 314 289 284 322 314 315 323
251 252 251 249 232 235 254 248 244 234 231 219 213 223 223 224 226 214 209 208 210 208 214 207 201 212 224 231 230 247 248 264 279 282 288 306 303 280 299 311 305 314 320
240 240 240 245 217 227 241 251 253 255 241 230 260 234 230 224 226 219 208 206 211 213 200 202 208 208 222 231 244 256 246 242 263 292 300 265 266 287 306 324 306 300 302
235 231 231 238 230 233 254 258 252 255 258 248 236 248 228 223 223 224 208 207 210 202 201 212 213 211 217 235 250 255 179 202 226 259 235 268 306 315 333 303 303 312 336
222 217 219 239 231 240 252 267 256 256 258 249 235 220 223 227 220 229 214 206 211 204 202 211 213 216 217 212 221 200 183 164 127 119 168 161 275 347 332 337 328 333 328
218 219 224 227 231 235 270 271 264 259 264 266 254 245 248 217 228 231 214 203 215 208 206 216 218 215 214 200 194 174 174 180 158 203 218 269 331 9 357 77 343 328 320
216 210 218 232 239 253 253 264 269 271 268 268 277 279 261 218 217 222 212 200 204 199 206 211 213 200 208 218 200 196 196 202 217 222 289 305 351 45 31 11 348 349 340
214 212 208 229 248 244 243 255 268 287 286 273 276 273 267 224 217 233 219 205 206 206 208 204 199 197 196 195 197 201 224 207 212 233 264 301 74 69 45 15 358 347 343
Wind_Speed_850mb
15 18 37 35 30 29 30 27 23 18 16 15 14 18 22 26 28 29 29 27 26 27 28 29 28 24 19 12 9 9 8 6 4 5 7 9 13 18 20 17 19 23 18
9 17 36 34 28 28 28 25 23 20 17 14 14 16 19 24 27 29 28 28 27 28 27 26 23 19 15 11 11 9 7 5 5 7 10 11 13 12 15 15 19 23 19
6 11 35 37 28 28 28 24 22 22 19 15 15 15 17 21 24 24 23 24 24 24 22 20 16 14 11 5 5 4 4 4 5 8 12 8 14 12 11 10 19 24 24
4 6 34 36 31 29 26 25 22 21 19 16 15 14 16 21 23 23 22 21 21 19 17 13 11 11 9 2 3 5 5 5 4 8 14 9 18 16 13 14 26 32 28
6 4 32 38 32 30 28 25 24 20 20 17 16 14 15 19 21 21 20 19 18 16 13 10 10 8 4 0 2 5 5 5 1 5 8 6 17 15 14 24 32 36 36
4 7 29 39 34 31 29 25 26 24 21 18 17 15 15 18 18 19 19 18 16 14 11 10 8 5 2 2 5 7 8 8 6 3 8 9 15 17 30 26 30 39 42
11 5 6 40 35 34 31 28 25 23 21 20 20 17 17 19 19 19 17 18 18 13 10 7 5 4 1 3 6 9 10 11 10 8 9 5 9 16 21 28 36 41 42
17 22 9 29 38 36 34 32 28 24 22 22 24 22 20 20 21 21 19 19 19 15 10 6 3 1 2 4 7 11 12 12 9 10 2 5 10 24 25 25 32 32 32
13 20 16 18 39 40 38 36 32 27 24 22 23 23 23 23 22 21 21 21 21 16 11 6 3 3 2 6 12 14 12 9 10 15 4 8 17 19 18 24 35 33 37
7 11 13 16 37 45 44 40 35 31 28 26 27 25 24 25 25 23 22 23 21 16 11 8 5 5 5 8 17 21 16 16 4 7 13 13 18 16 22 30 31 36 37
13 15 23 18 21 47 47 45 41 37 33 31 31 29 29 28 28 28 25 24 22 18 12 9 7 6 4 4 10 16 16 14 10 14 19 16 10 18 26 33 37 41 38
21 17 20 24 23 47 51 48 45 43 40 37 35 32 31 29 28 27 27 25 24 19 14 10 6 3 3 10 5 7 9 12 15 17 7 6 19 28 34 40 47 38 33
24 23 22 30 27 37 51 47 49 47 43 40 38 35 33 32 29 31 30 28 25 21 16 12 6 10 9 5 7 7 12 17 4 9 11 14 26 35 42 43 38 29 30
20 20 19 30 32 29 45 39 38 49 46 45 42 39 40 39 32 30 27 20 23 22 15 14 11 5 4 10 9 3 4 2 8 9 20 27 34 41 45 35 30 30 29
33 13 14 20 37 49 42 47 52 39 50 48 46 42 45 44 36 27 25 19 9 16 17 9 6 3 9 4 8 13 17 21 22 27 33 40 44 38 35 32 33 33 38
40 39 28 30 26 44 57 43 56 54 41 45 49 45 50 49 41 39 31 31 21 11 12 10 3 13 17 15 16 14 23 26 23 30 32 36 45 32 26 32 35 38 40
29 42 54 53 44 38 62 56 57 52 46 40 39 42 48 55 50 47 41 40 33 26 17 19 28 27 25 26 18 19 22 27 17 24 26 34 38 28 27 29 41 37 45
55 42 46 53 44 44 42 65 63 67 57 59 48 44 43 60 60 51 43 52 54 42 48 42 36 30 19 15 17 17 21 24 22 27 24 25 22 24 23 32 39 40 38
45 52 39 51 56 40 44 40 67 73 65 59 61 59 55 52 58 59 52 51 46 50 44 36 36 26 17 24 26 23 20 19 22 25 20 20 11 16 19 25 34 38 32
59 52 52 38 55 44 47 48 45 74 79 61 73 76 64 65 59 65 60 53 49 50 46 31 26 26 32 34 30 26 22 23 19 19 15 15 8 12 24 36 30 30 35
54 53 45 47 49 45 41 52 56 53 78 89 36 54 78 76 63 72 60 61 57 55 46 38 32 38 34 33 32 29 20 19 24 15 10 11 13 20 28 25 27 35 29
50 53 47 45 51 48 47 61 60 60 60 73 102 112 90 82 71 65 62 67 55 55 50 39 48 44 37 29 17 13 5 5 9 6 3 7 16 14 16 22 23 19 20
53 49 40 40 50 44 42 43 54 60 53 61 85 99 81 82 66 58 62 65 56 49 54 42 43 41 35 24 11 8 8 7 4 11 10 6 1 10 9 14 10 11 13
54 51 47 44 40 40 42 47 38 60 64 56 71 81 64 72 63 64 57 60 55 50 46 45 43 35 38 23 13 12 10 6 5 7 7 11 14 10 14 2 5 15 23
48 45 44 45 45 46 47 34 32 38 55 70 62 53 57 60 68 53 51 58 47 56 52 51 43 37 32 25 17 21 14 8 12 6 11 14 10 20 18 12 20 19 32
38 45 44 38 38 49 43 37 37 38 46 53 53 53 55 60 71 52 57 68 63 64 56 49 39 35 31 27 24 18 10 9 11 9 7 10 4 17 15 21 29 37 44
Wind_Direction_850mb
67 110 158 151 144 138 134 129 129 135 139 127 116 123 132 139 140 142 142 143 140 138 136 136 139 136 128 121 138 157 167 169 148 130 119 99 71 49 23 9 354 360 3
43 113 161 155 148 144 136 129 133 140 145 138 129 124 136 140 142 145 147 147 143 143 143 145 147 149 144 132 141 162 184 165 129 124 112 100 52 31 28 16 359 355 354
76 97 170 163 156 150 140 132 135 144 153 152 144 135 145 147 145 146 148 147 148 148 146 148 154 159 160 144 117 107 96 91 100 111 106 86 19 327 344 7 353 342 334
318 119 179 171 163 156 147 142 139 148 155 161 158 152 154 154 153 153 152 151 150 147 146 146 144 152 168 160 33 50 55 68 102 139 137 32 15 331 276 331 340 340 331
11 122 185 179 173 163 155 153 146 152 159 165 170 166 164 161 159 157 157 155 150 146 146 153 155 163 183 173 14 18 21 17 52 179 170 80 0 344 306 320 329 331 325
178 79 187 186 183 171 164 167 157 159 164 174 176 176 174 169 168 167 166 163 159 158 158 163 171 195 225 315 338 352 356 347 335 275 196 161 346 301 308 316 319 319 317
228 165 138 195 189 181 175 176 171 166 172 177 181 184 182 180 175 177 177 172 172 176 178 171 172 193 249 340 358 353 349 342 344 322 276 246 297 314 297 302 310 312 310
234 169 164 199 195 191 183 183 182 177 178 185 188 188 186 188 185 184 189 185 184 188 188 180 179 206 334 359 5 359 353 2 9 345 290 208 284 283 282 294 311 316 318
215 188 187 189 203 199 193 190 189 187 186 189 197 196 192 192 195 193 195 195 192 198 206 218 233 259 294 1 18 18 22 57 62 47 158 290 325 259 267 295 306 312 313
210 214 214 228 204 205 201 196 195 195 195 195 199 200 199 199 200 202 201 202 201 208 220 236 249 282 330 24 70 61 62 70 41 358 302 309 274 263 287 298 308 311 312
224 221 238 218 225 210 208 203 200 200 202 201 202 203 203 203 205 205 204 205 206 213 225 245 262 286 353 51 89 76 61 39 358 315 295 264 277 293 310 317 317 314 312
204 227 245 246 239 218 210 209 208 205 204 205 205 206 206 205 208 210 210 211 209 215 221 225 247 303 106 116 65 104 54 1 332 327 256 260 314 320 324 322 317 315 318
232 220 244 244 235 217 214 212 215 214 210 209 208 206 206 205 199 208 212 213 216 220 217 207 168 121 137 173 135 95 4 327 306 194 306 335 323 322 320 314 318 326 324
204 244 239 226 216 192 216 222 224 224 219 216 213 206 205 207 197 215 209 216 229 223 208 202 187 155 240 331 281 179 336 20 104 326 320 318 321 317 310 321 330 333 332
271 191 229 219 219 202 208 227 232 231 228 226 220 210 204 206 201 216 212 205 214 204 181 152 197 176 200 326 140 187 239 270 289 299 304 311 312 305 316 326 331 332 331
267 251 245 243 254 227 224 229 225 235 232 229 227 217 204 204 204 216 216 216 220 195 193 203 158 233 248 226 252 242 239 270 280 293 298 296 308 301 314 324 328 330 333
268 246 244 252 258 247 228 228 223 223 226 228 229 214 211 203 205 214 215 215 217 216 218 199 210 215 238 245 234 261 278 287 270 291 290 291 299 296 313 331 329 326 331
261 258 246 240 244 256 240 228 216 210 221 224 230 225 217 214 204 213 217 206 208 205 213 215 216 223 216 216 246 261 291 286 270 279 294 302 303 302 309 316 321 318 321
251 255 248 239 238 250 247 242 233 220 218 220 219 226 224 220 212 211 213 209 215 210 217 220 223 196 223 224 233 253 257 263 283 291 289 301 314 289 284 322 314 315 323
251 252 251 249 232 235 254 248 244 234 231 219 213 223 223 224 226 214 209 208 210 208 214 207 201 212 224 231 230 247 248 264 279 282 288 306 303 280 299 311 305 314 320
240 240 240 245 217 227 241 251 253 255 241 230 260 234 230 224 226 219 208 206 211 213 200 202 208 208 222 231 244 256 246 242 263 292 300 265 266 287 306 324 306 300 302
235 231 231 238 230 233 254 258 252 255 258 248 236 248 228 223 223 224 208 207 210 202 201 212 213 211 217 235 250 255 179 202 226 259 235 268 306 315 333 303 303 312 336
222 217 219 239 231 240 252 267 256 256 258 249 235 220 223 227 220 229 214 206 211 204 202 211 213 216 217 212 221 200 183 164 127 119 168 161 275 347 332 337 328 333 328
218 219 224 227 231 235 270 271 264 259 264 266 254 245 248 217 228 231 214 203 215 208 206 216 218 215 214 200 194 174 174 180 158 203 218 269 331 9 357 77 343 328 320
216 210 218 232 239 253 253 264 269 271 268 268 277 279 261 218 217 222 212 200 204 199 206 211 213 200 208 218 200 196 196 202 217 222 289 305 351 45 31 11 348 349 340
214 212 208 229 248 244 243 255 268 287 286 273 276 273 267 224 217 233 219 205 206 206 208 204 199 197 196 195 197 201 224 207 212 233 264 301 74 69 45 15 358 347 343